Starlink 3342

operational
NORAD ID: 50816 Int'l Des: 2022-001 Owner: SPXS Country: US Constellation: starlink
LEOCIRCULAR

关于 Starlink 3342

正在加载描述...

实时位置

正在加载3D地球...

即将过境

高度历史

Altitude vs Time

uPlot chart will show altitude changes over time

两行轨道根数

1 50816U 22001P 25347.30966152 .00032338 00000-0 20143-2 0 9999
2 50816 53.2140 196.8795 0001756 105.1760 254.9426 15.09315677217366
Epoch: Dec 13, 2025 • Age: 20 hours

当前状态

高度 537.6 km
速度 7.60 km/s
星下点 13.19°N, 128.27°W
发射日期 Jan 6, 2022
运行时间 3.9 years
类型 internet

技术详情

分类 Payload
质量 297.00 kg
干质量 275.00 kg
总质量 297.00 kg
长度 0.20 m
直径 2.80 m
跨度 9.00 m
形状 Box + pan
制造商 SPXS
平台类型 Starlink
阶段状态 In Orbit
所有者/国家 SPXS/US

大型星座

Loading constellations...